(25088) Yoshimura = 1998 RR19 = 1999 XD91

Discovered at Socorro on 1998-09-14 by LINEAR.
(25088) Yoshimura = 1998 RR19

Yoshimura Fumiya (b. 1992) was awarded second place in the 2008 Intel International Science and Engineering Fair for his energy and transportation team project. He attends the Nara Prefectural Oji Technical High School, Nara, Japan. [Ref: Minor Planet Circ. 63876]

Orbit

Orbit type: Main Belt

Note: WebGL enabled browser required.

epoch2024-03-31.0
epoch JD2460400.5
perihelion date2023-10-01.45387
perihelion JD2460218.95387
argument of perihelion (°)138.71074
ascending node (°)210.04803
inclination (°)2.81885
eccentricity0.1078630
perihelion distance (AU)2.3104752
Tisserand w.r.t. Jupiter3.4
ΔV w.r.t. Earth (km/sec)9.6
semimajor axis (AU)2.5898210
mean anomaly (°)42.93250
mean daily motion (°/day)0.23648260
aphelion distance (AU)2.869
period (years)4.17
P-vector [x]0.98041532
P-vector [y]-0.19112834
P-vector [z]-0.04749479
Q-vector [x]0.19539553
Q-vector [y]0.91385690
Q-vector [z]0.35592999
absolute magnitude15.29
phase slope0.15
uncertainty0
referenceMPEC 2024-E50
observations used1500
oppositions24
arc length (days)12146
first opposition used1990
last opposition used2024
residual rms (arc-secs)0.70
perturbers coarse indicatorM-v
perturbers precise indicator003Ek
first observation date used1990-10-14.0
last observation date used2024-01-15.0
computer nameMPCLINUX
JD of orbit computation2456847.609300
perihelion JD uncertainty (days)8.9562E-05
argument of perihelion uncertainty (°)7.8703E-05
ascending node uncertainty (°)7.6152E-05
inclination uncertainty (°)4.1740E-06
eccentricity uncertainty 3.2929E-08
perihelion distance uncertainty (AU)8.5928E-08
Minimum Orbit Intersection Distances (in AU)
for orbit epoch: 2460400.5, reference: E2024-E50
Mercury1.927
Venus1.5877
Earth1.30486
Mars0.92576
Jupiter2.50681
Saturn6.35023
Uranus15.5745
Neptune27.3718

Observations

1540 total observations over interval: 1990 10 14.44671 – 2024 01 15.086123
These data are available for download (format description).

Date (UT) J2000 RA J2000 Dec Magn Location Ref
1990 10 14.44671 02 02 19.90 +12 40 02.7 19.1 V 691 – Steward Observatory, Kitt Peak-Spacewatch MPS 79048
1990 10 14.46787 02 02 18.79 +12 39 55.3 19.2 V 691 – Steward Observatory, Kitt Peak-Spacewatch MPS 79048
1990 10 14.48902 02 02 17.70 +12 39 47.5 19.0 V 691 – Steward Observatory, Kitt Peak-Spacewatch MPS 79048
1992 02 29.12471 09 11 41.67 +12 12 47.1 21.3 V 691 – Steward Observatory, Kitt Peak-Spacewatch MPS 79048
1992 02 29.15848 09 11 40.16 +12 12 56.5 21.0 V 691 – Steward Observatory, Kitt Peak-Spacewatch MPS 79048
1992 02 29.18111 09 11 39.12 +12 13 02.6 20.9 V 691 – Steward Observatory, Kitt Peak-Spacewatch MPS 79048
1993 06 22.18432 14 49 00.95 -14 08 41.7 19.2 V 691 – Steward Observatory, Kitt Peak-Spacewatch MPS 79048
1993 06 22.20695 14 49 00.61 -14 08 39.8 19.6 V 691 – Steward Observatory, Kitt Peak-Spacewatch MPS 79048
1993 06 22.22913 14 49 00.24 -14 08 37.7 19.7 V 691 – Steward Observatory, Kitt Peak-Spacewatch MPS 79048
1995 12 30.43949 08 51 08.26 +13 22 51.3 19.9 V 691 – Steward Observatory, Kitt Peak-Spacewatch MPS 80886
1995 12 30.44537 08 51 08.01 +13 22 51.7 19.8 V 691 – Steward Observatory, Kitt Peak-Spacewatch MPS 80886
1995 12 30.45152 08 51 07.76 +13 22 52.3 20.2 V 691 – Steward Observatory, Kitt Peak-Spacewatch MPS 80886
1996 01 29.16346 08 25 32.08 +14 48 04.6 19.4 V 691 – Steward Observatory, Kitt Peak-Spacewatch MPS 16401
1996 01 29.18508 08 25 30.75 +14 48 09.9   691 – Steward Observatory, Kitt Peak-Spacewatch MPS 16401
1996 01 29.20743 08 25 29.48 +14 48 14.5   691 – Steward Observatory, Kitt Peak-Spacewatch MPS 16401
1997 04 28.28452 14 07 39.31 -12 28 59.3 19.9 V 691 – Steward Observatory, Kitt Peak-Spacewatch MPS 80886
1997 04 28.30641 14 07 38.12 -12 28 51.7 20.2 V 691 – Steward Observatory, Kitt Peak-Spacewatch MPS 80886
1997 04 28.33060 14 07 36.81 -12 28 43.9 19.7 V 691 – Steward Observatory, Kitt Peak-Spacewatch MPS 80886
1997 04 29.22009 14 06 50.36 -12 23 44.0 19.0 V 691 – Steward Observatory, Kitt Peak-Spacewatch MPS 16401
1997 04 29.24200 14 06 49.20 -12 23 37.4 19.0 V 691 – Steward Observatory, Kitt Peak-Spacewatch MPS 16401
1997 04 29.26359 14 06 48.02 -12 23 30.3 18.9 V 691 – Steward Observatory, Kitt Peak-Spacewatch MPS 16401
1997 05 08.21166 13 59 15.47 -11 34 33.0 20.0 V 691 – Steward Observatory, Kitt Peak-Spacewatch MPS 80886
1997 05 08.23309 13 59 14.41 -11 34 26.3 20.2 V 691 – Steward Observatory, Kitt Peak-Spacewatch MPS 80886
1997 05 08.25444 13 59 13.35 -11 34 20.1 20.3 V 691 – Steward Observatory, Kitt Peak-Spacewatch MPS 80886
1998 08 03.39839 23 00 21.04 -02 04 24.3 18.2 R 699 – Lowell Observatory-LONEOS MPS 50987
1998 08 03.41824 23 00 20.55 -02 04 27.0   699 – Lowell Observatory-LONEOS MPS 50987
1998 08 03.43810 23 00 20.04 -02 04 29.1   699 – Lowell Observatory-LONEOS MPS 50987
1998 08 17.35709 22 52 50.84 -02 49 09.5 18.2   704 – Lincoln Laboratory ETS, New Mexico MPS 16401
1998 08 17.37819 22 52 49.93 -02 49 15.0 18.8   704 – Lincoln Laboratory ETS, New Mexico MPS 16401
1998 08 17.39936 22 52 49.00 -02 49 20.2 19.0   704 – Lincoln Laboratory ETS, New Mexico MPS 16401
1998 08 17.42027 22 52 48.12 -02 49 26.6 19.3   704 – Lincoln Laboratory ETS, New Mexico MPS 16401
1998 08 17.44121 22 52 47.13 -02 49 31.5 19.3   704 – Lincoln Laboratory ETS, New Mexico MPS 16401
1998 08 23.39843 22 48 27.73 -03 18 18.4 18.0   704 – Lincoln Laboratory ETS, New Mexico MPS 16401
1998 08 23.41025 22 48 27.12 -03 18 22.8 19.1   704 – Lincoln Laboratory ETS, New Mexico MPS 16401
1998 08 23.42300 22 48 26.59 -03 18 27.2 19.3   704 – Lincoln Laboratory ETS, New Mexico MPS 16401
1998 08 23.43609 22 48 25.91 -03 18 31.7 19.2   704 – Lincoln Laboratory ETS, New Mexico MPS 16401
1998 08 23.44902 22 48 24.99 -03 18 33.8 19.7   704 – Lincoln Laboratory ETS, New Mexico MPS 16401
1998 08 26.21373 22 46 16.61 -03 33 27.2 18.2 R 699 – Lowell Observatory-LONEOS MPS 16401
1998 08 26.24352 22 46 15.13 -03 33 35.9   699 – Lowell Observatory-LONEOS MPS 16401
1998 08 26.27332 22 46 13.67 -03 33 45.9   699 – Lowell Observatory-LONEOS MPS 16401
1998 09 14.14979 22 31 16.18 -05 26 26.3 18.0   704 – Lincoln Laboratory ETS, New Mexico MPS 2298
1998 09 14.17178 22 31 15.17 -05 26 35.1 18.0   704 – Lincoln Laboratory ETS, New Mexico MPS 2298
1998 09 14.19371 22 31 14.09 -05 26 43.9 17.9   704 – Lincoln Laboratory ETS, New Mexico MPS 2298
1998 09 14.21579 22 31 13.16 -05 26 50.1 18.3   704 – Lincoln Laboratory ETS, New Mexico MPS 2298
1998 09 14.23784 22 31 12.08 -05 26 57.3 18.1   704 – Lincoln Laboratory ETS, New Mexico MPS 2298
1998 09 18.25036 22 28 25.32 -05 50 20.2 18.7   704 – Lincoln Laboratory ETS, New Mexico MPS 2298
1998 09 18.26320 22 28 24.84 -05 50 27.8 18.6   704 – Lincoln Laboratory ETS, New Mexico MPS 2298
1998 09 18.27610 22 28 24.26 -05 50 31.3 18.6   704 – Lincoln Laboratory ETS, New Mexico MPS 2298
1998 09 18.28894 22 28 23.68 -05 50 33.5 18.8   704 – Lincoln Laboratory ETS, New Mexico MPS 2298
1998 09 18.30176 22 28 23.18 -05 50 38.0 18.8   704 – Lincoln Laboratory ETS, New Mexico MPS 2298
1999 12 07.38718 07 51 28.47 +17 03 21.8 19.0   704 – Lincoln Laboratory ETS, New Mexico MPS 8042
1999 12 07.40189 07 51 28.01 +17 03 22.8 19.4   704 – Lincoln Laboratory ETS, New Mexico MPS 8042
1999 12 07.41661 07 51 27.65 +17 03 20.2 19.3   704 – Lincoln Laboratory ETS, New Mexico MPS 8042
1999 12 07.43128 07 51 27.22 +17 03 20.7 19.2   704 – Lincoln Laboratory ETS, New Mexico MPS 8042
1999 12 08.39989 07 51 00.28 +17 03 14.7 19.1   704 – Lincoln Laboratory ETS, New Mexico MPS 8042
1999 12 08.41245 07 50 59.96 +17 03 15.7 19.3   704 – Lincoln Laboratory ETS, New Mexico MPS 8042
1999 12 08.43751 07 50 59.12 +17 03 13.5 19.8   704 – Lincoln Laboratory ETS, New Mexico MPS 8042
2000 01 05.30917 07 28 55.90 +17 30 32.6 19.6   704 – Lincoln Laboratory ETS, New Mexico MPS 16678
2000 01 05.32377 07 28 54.98 +17 30 35.1 19.3   704 – Lincoln Laboratory ETS, New Mexico MPS 16678
2000 01 05.35292 07 28 53.13 +17 30 37.3 19.4   704 – Lincoln Laboratory ETS, New Mexico MPS 16678
2000 02 03.17809 07 02 27.36 +18 27 41.6 19.3   704 – Lincoln Laboratory ETS, New Mexico MPS 16678
2000 02 03.19245 07 02 26.76 +18 27 43.3 19.1   704 – Lincoln Laboratory ETS, New Mexico MPS 16678
2000 02 03.20678 07 02 26.14 +18 27 44.9 19.3   704 – Lincoln Laboratory ETS, New Mexico MPS 16678
2001 03 24.31307 13 23 15.42 -09 51 56.6 18.6   704 – Lincoln Laboratory ETS, New Mexico MPS 27435
2001 03 24.32610 13 23 14.91 -09 51 53.2 19.1   704 – Lincoln Laboratory ETS, New Mexico MPS 27435
2001 03 24.35227 13 23 13.65 -09 51 44.2 18.8   704 – Lincoln Laboratory ETS, New Mexico MPS 27435
2001 03 24.36534 13 23 13.05 -09 51 40.7 19.1   704 – Lincoln Laboratory ETS, New Mexico MPS 27435
2001 04 01.26975 13 17 02.20 -09 08 31.5 18.8   704 – Lincoln Laboratory ETS, New Mexico MPS 27435
2001 04 01.28415 13 17 01.45 -09 08 26.4 19.2   704 – Lincoln Laboratory ETS, New Mexico MPS 27435
2001 04 01.29865 13 17 00.81 -09 08 21.2 19.2   704 – Lincoln Laboratory ETS, New Mexico MPS 27435
2001 04 01.31308 13 17 00.03 -09 08 17.2 19.4   704 – Lincoln Laboratory ETS, New Mexico MPS 27435
2001 04 16.28755 13 04 22.10 -07 37 27.2 18.7 R 699 – Lowell Observatory-LONEOS MPS 29428
2001 04 16.32583 13 04 20.16 -07 37 14.0   699 – Lowell Observatory-LONEOS MPS 29428
2001 04 16.36388 13 04 18.17 -07 37 00.3   699 – Lowell Observatory-LONEOS MPS 29428
2001 04 16.40215 13 04 16.29 -07 36 45.9   699 – Lowell Observatory-LONEOS MPS 29428
2001 04 25.38915 12 57 10.98 -06 43 37.8 19.9   608 – Haleakala-AMOS MPS 29896
2001 04 25.40003 12 57 10.45 -06 43 34.6 20.2   608 – Haleakala-AMOS MPS 29896
2001 04 25.41111 12 57 09.93 -06 43 30.6 20.1   608 – Haleakala-AMOS MPS 29896
2001 04 28.22783 12 55 09.28 -06 28 01.9 19.4 V 691 – Steward Observatory, Kitt Peak-Spacewatch MPS 29896
2001 04 28.25656 12 55 08.00 -06 27 53.0 19.7 V 691 – Steward Observatory, Kitt Peak-Spacewatch MPS 29896
